CW8164 Weather Reports


Display with metric or nautical units.
time (UTC)temp
F
wind
direction
speed
MPH
gust
MPH
rain 1hr
in
rain 24hr
in
rain mn
in
humidity
%
barometer
mb
20200526114405 56 314 0.0 0.0 0.00 0.11 0.00 97 1019.0
20200526112905 56 314 0.0 0.0 0.00 0.11 0.00 97 1018.9
20200526111905 56 314 0.0 0.0 0.00 0.11 0.00 97 1018.8
20200526111405 56 314 0.0 0.0 0.00 0.11 0.00 97 1018.7
20200526110405 56 314 0.0 0.0 0.00 0.11 0.00 97 1018.7
20200526104405 56 314 0.0 0.0 0.00 0.11 0.00 97 1018.7
20200526103905 56 314 0.0 0.0 0.00 0.11 0.00 97 1018.7
20200526103405 56 314 0.0 0.0 0.00 0.11 0.00 97 1018.7
20200526102905 56 314 0.0 0.0 0.00 0.11 0.00 97 1018.8
20200526102405 56 314 0.0 0.0 0.00 0.11 0.00 97 1018.8
20200526101905 55 314 0.0 0.0 0.00 0.11 0.00 97 1018.7
20200526101405 55 314 0.0 0.0 0.00 0.11 0.00 97 1018.7
20200526100405 55 314 0.0 0.0 0.00 0.11 0.00 97 1018.8
20200526095905 55 314 0.0 0.0 0.00 0.11 0.00 97 1018.8
20200526095405 55 314 0.0 0.0 0.00 0.11 0.00 97 1018.8
20200526094904 55 314 0.0 0.0 0.00 0.11 0.00 97 1018.8
20200526093904 55 314 0.0 0.0 0.00 0.11 0.00 97 1018.8
20200526093405 55 314 0.0 0.0 0.00 0.11 0.00 97 1018.8
20200526092405 55 314 0.0 0.0 0.00 0.11 0.00 96 1018.9
20200526091905 55 314 0.0 0.0 0.00 0.11 0.00 96 1019.0
20200526090905 55 314 0.0 0.0 0.00 0.11 0.00 95 1019.0
20200526085905 55 314 0.0 0.0 0.00 0.11 0.00 95 1019.0
20200526084904 56 314 0.0 0.0 0.00 0.11 0.00 96 1018.9
20200526083905 56 314 0.0 0.0 0.00 0.11 0.00 96 1018.9
20200526083404 56 314 0.0 0.0 0.00 0.11 0.00 96 1018.8
20200526082405 57 314 0.0 0.0 0.00 0.11 0.00 96 1018.8
20200526075905 57 314 0.0 0.0 0.00 0.11 0.00 96 1019.1
20200526074905 57 314 0.0 0.0 0.00 0.11 0.00 96 1019.1
20200526074405 57 314 0.0 0.0 0.00 0.11 0.00 96 1019.1
20200526073904 57 314 0.0 0.0 0.00 0.11 0.00 96 1019.2
20200526072905 58 314 0.0 0.0 0.00 0.11 0.00 96 1019.2
20200526071905 58 314 0.0 0.0 0.00 0.11 0.00 96 1019.2
20200526071404 58 314 0.0 0.0 0.00 0.11 0.00 96 1019.2
20200526070905 58 314 0.0 0.0 0.00 0.11 0.00 96 1019.2
20200526070405 58 314 0.0 0.0 0.00 0.11 0.00 96 1019.1
20200526065904 58 314 0.0 0.0 0.00 0.11 0.11 96 1019.2
20200526065404 58 314 0.0 0.0 0.00 0.11 0.11 96 1019.3
20200526064905 58 314 0.0 0.0 0.00 0.11 0.11 96 1019.2
20200526064405 58 314 0.0 0.0 0.00 0.11 0.11 96 1019.3
20200526063905 58 314 0.0 0.0 0.00 0.11 0.11 96 1019.2
20200526062905 58 314 0.0 0.0 0.00 0.11 0.11 96 1019.1
20200526061404 58 314 0.0 0.0 0.00 0.11 0.11 95 1019.3
20200526060911 58 314 0.0 0.0 0.00 0.11 0.11 95 1019.3
20200526060404 58 314 0.0 0.0 0.00 0.11 0.11 95 1019.3
20200526055905 58 314 0.0 0.0 0.00 0.11 0.11 95 1019.3
20200526055405 59 314 0.0 0.0 0.00 0.11 0.11 95 1019.3
20200526054904 59 314 0.0 0.0 0.00 0.11 0.11 95 1019.3
20200526054405 59 314 0.0 0.0 0.00 0.11 0.11 95 1019.4
20200526053404 59 314 0.0 0.0 0.00 0.11 0.11 95 1019.4
20200526052405 59 314 0.0 0.0 0.00 0.11 0.11 95 1019.4
20200526051904 59 314 0.0 0.0 0.00 0.11 0.11 95 1019.3
20200526051405 59 314 0.0 0.0 0.00 0.11 0.11 95 1019.3
20200526050905 59 314 0.0 0.0 0.00 0.11 0.11 95 1019.3
20200526050405 60 314 0.0 0.0 0.00 0.11 0.11 95 1019.4
20200526045904 60 314 0.0 0.0 0.00 0.11 0.11 95 1019.4
20200526045405 60 314 0.0 0.0 0.00 0.11 0.11 95 1019.4
20200526044905 60 314 0.0 0.0 0.00 0.11 0.11 95 1019.3
20200526044404 60 314 0.0 0.0 0.00 0.11 0.11 95 1019.2
20200526043406 60 314 0.0 0.0 0.00 0.11 0.11 94 1019.2
20200526042905 60 314 0.0 0.0 0.00 0.11 0.11 94 1019.1
20200526042404 60 314 0.0 0.0 0.00 0.11 0.11 94 1019.1
20200526041905 60 314 0.0 0.0 0.00 0.11 0.11 94 1019.1
20200526041405 60 314 0.0 0.0 0.00 0.11 0.11 94 1019.0
20200526040905 60 314 0.0 0.0 0.00 0.11 0.11 94 1018.9
20200526040405 60 314 0.0 0.0 0.00 0.11 0.11 94 1018.9
20200526035904 60 314 0.0 0.0 0.00 0.11 0.11 93 1019.0
20200526035405 60 314 0.0 0.0 0.00 0.11 0.11 93 1018.9
20200526033404 61 314 0.0 0.0 0.00 0.11 0.11 93 1018.9
20200526032904 61 314 0.0 0.0 0.00 0.11 0.11 92 1018.8
20200526032405 61 314 0.0 0.0 0.00 0.11 0.11 92 1018.8
20200526030404 61 314 0.0 0.0 0.00 0.11 0.11 92 1018.8
20200526025404 61 314 0.0 2.0 0.00 0.11 0.11 91 1018.8
20200526024404 61 314 1.0 2.0 0.00 0.11 0.11 91 1018.8
20200526023404 61 12 0.0 0.0 0.00 0.11 0.11 91 1019.0
20200526022404 61 12 0.0 3.0 0.00 0.11 0.11 91 1019.1
20200526021904 61 12 1.0 3.0 0.00 0.11 0.11 91 1019.0
20200526020904 61 34 2.0 3.0 0.00 0.11 0.11 91 1019.0
20200526014405 62 28 2.0 3.0 0.00 0.11 0.11 88 1019.0
20200526013905 63 27 1.0 3.0 0.00 0.11 0.11 86 1019.0
20200526012904 63 171 0.0 2.0 0.00 0.11 0.11 84 1019.0
20200526010905 64 162 0.0 0.0 0.00 0.11 0.11 81 1018.8
20200526010404 65 162 0.0 0.0 0.00 0.11 0.11 80 1018.8
20200526005404 65 162 0.0 0.0 0.00 0.11 0.11 81 1018.7
20200526004404 65 162 0.0 0.0 0.00 0.11 0.11 79 1018.8
20200526002904 65 162 0.0 0.0 0.00 0.11 0.11 75 1018.7
20200526001904 65 162 0.0 0.0 0.00 0.11 0.11 76 1018.7
20200525235904 66 162 1.0 3.0 0.00 0.11 0.11 76 1018.9
20200525235404 66 44 1.0 3.0 0.00 0.11 0.11 76 1018.8
20200525234405 65 26 1.0 3.0 0.00 0.11 0.11 77 1018.7
20200525233405 64 218 0.0 3.0 0.00 0.11 0.11 78 1018.9
20200525232905 65 218 0.0 3.0 0.00 0.11 0.11 80 1019.0
20200525231404 63 90 0.0 6.0 0.00 0.11 0.11 82 1019.0
20200525230404 64 179 2.0 5.0 0.00 0.11 0.11 82 1019.1
20200525225905 64 59 1.0 2.0 0.00 0.11 0.11 83 1019.0
20200525224905 63 59 1.0 3.0 0.00 0.11 0.11 84 1019.1
20200525223904 63 63 1.0 3.0 0.00 0.11 0.11 83 1019.1
20200525222404 62 88 2.0 5.0 0.00 0.11 0.11 86 1019.3
20200525221906 62 92 2.0 3.0 0.00 0.11 0.11 85 1019.3
20200525220904 62 71 2.0 3.0 0.00 0.11 0.11 87 1019.2
20200525220404 62 147 1.0 7.0 0.00 0.11 0.11 88 1019.3
20200525214905 61 77 0.0 3.0 0.01 0.11 0.11 87 1019.3
20200525214404 61 77 2.0 6.0 0.01 0.11 0.11 88 1019.3
20200525213904 61 83 3.0 6.0 0.01 0.11 0.11 87 1019.4
20200525212904 60 58 0.0 3.0 0.01 0.11 0.11 90 1019.6
20200525211904 60 59 1.0 3.0 0.01 0.11 0.11 89 1019.6
20200525205404 59 125 0.0 0.0 0.01 0.11 0.11 90 1019.8
20200525204405 59 135 0.0 2.0 0.00 0.10 0.10 93 1019.8
20200525203904 59 146 1.0 2.0 0.00 0.10 0.10 93 1019.9
20200525201904 59 212 0.0 3.0 0.01 0.10 0.10 94 1019.9
20200525200404 58 216 1.0 2.0 0.02 0.10 0.10 93 1019.7
20200525195904 58 184 0.0 2.0 0.02 0.10 0.10 94 1019.8
20200525195405 58 215 1.0 2.0 0.03 0.10 0.10 94 1019.8
20200525194904 58 209 0.0 5.0 0.03 0.10 0.10 94 1019.8
20200525194404 58 209 1.0 5.0 0.03 0.10 0.10 94 1019.7
20200525193904 58 33 1.0 3.0 0.03 0.10 0.10 94 1019.7
20200525193404 58 95 0.0 3.0 0.03 0.10 0.10 94 1019.7
20200525191405 57 102 0.0 2.0 0.03 0.09 0.09 94 1019.7
20200525190904 57 104 0.0 3.0 0.03 0.08 0.08 94 1019.7
20200525190404 57 103 0.0 3.0 0.03 0.08 0.08 93 1019.7
20200525185905 57 104 1.0 3.0 0.04 0.08 0.08 94 1019.7
20200525185406 57 104 0.0 2.0 0.03 0.07 0.07 94 1019.8
20200525184906 57 104 0.0 2.0 0.04 0.07 0.07 94 1019.8
20200525184406 57 104 1.0 3.0 0.04 0.07 0.07 93 1019.8
20200525183906 57 92 1.0 3.0 0.04 0.07 0.07 93 1019.9
20200525182906 57 187 0.0 2.0 0.04 0.06 0.06 94 1019.8
20200525181905 57 187 0.0 1.0 0.04 0.06 0.06 94 1019.7
20200525180906 57 187 1.0 2.0 0.03 0.05 0.05 93 1019.6
20200525180406 57 164 0.0 6.0 0.03 0.05 0.05 94 1019.6
20200525175905 57 105 1.0 6.0 0.02 0.04 0.04 92 1019.6
20200525175405 57 240 0.0 2.0 0.02 0.04 0.04 95 1019.6
20200525174905 57 240 0.0 3.0 0.01 0.03 0.03 94 1019.5
20200525174405 57 240 1.0 3.0 0.01 0.03 0.03 94 1019.4
20200525172905 56 30 0.0 0.0 0.01 0.02 0.02 94 1019.2
20200525172405 56 30 0.0 0.0 0.01 0.02 0.02 94 1019.2
20200525171405 56 30 0.0 0.0 0.01 0.02 0.02 94 1019.2
20200525170406 56 30 0.0 0.0 0.01 0.02 0.02 94 1019.2
20200525165405 56 30 0.0 0.0 0.01 0.02 0.02 94 1019.2
20200525164406 55 298 0.0 0.0 0.01 0.02 0.02 94 1019.4
20200525163905 55 298 0.0 0.0 0.01 0.02 0.02 93 1019.3
20200525163405 56 298 0.0 0.0 0.00 0.01 0.01 94 1019.1
20200525162905 56 298 0.0 0.0 0.00 0.01 0.01 94 1019.4
20200525162405 56 298 0.0 0.0 0.00 0.01 0.01 94 1019.2
20200525161906 56 298 0.0 0.0 0.00 0.01 0.01 94 1019.1
20200525161405 56 298 0.0 0.0 0.00 0.01 0.01 94 1019.2
20200525160905 55 298 0.0 0.0 0.00 0.01 0.01 94 1018.8
20200525160405 55 298 0.0 0.0 0.00 0.01 0.01 94 1018.8
20200525155905 55 298 0.0 0.0 0.01 0.01 0.01 95 1018.7
20200525154906 55 298 0.0 0.0 0.01 0.01 0.01 95 1018.7
20200525154407 55 298 0.0 0.0 0.01 0.01 0.01 96 1018.6
20200525153906 55 298 0.0 0.0 0.01 0.01 0.01 96 1018.5
20200525152906 55 298 0.0 0.0 0.01 0.01 0.01 96 1018.4
20200525152405 55 298 0.0 0.0 0.01 0.01 0.01 97 1018.3
20200525150905 54 298 0.0 0.0 0.01 0.01 0.01 97 1018.3
20200525150405 54 298 0.0 0.0 0.01 0.01 0.01 97 1018.3
20200525145905 54 298 0.0 0.0 0.00 0.00 0.00 97 1018.2
20200525144906 54 298 0.0 0.0 0.00 0.00 0.00 97 1018.3
20200525143905 53 298 0.0 0.0 0.00 0.00 0.00 97 1018.4
20200525143405 53 298 0.0 0.0 0.00 0.00 0.00 97 1018.4
20200525142405 52 298 0.0 0.0 0.00 0.00 0.00 97 1018.3
20200525141905 52 298 0.0 0.0 0.00 0.00 0.00 97 1018.3
20200525141405 52 298 0.0 0.0 0.00 0.00 0.00 97 1018.3
20200525140905 52 298 0.0 0.0 0.00 0.00 0.00 97 1018.3
20200525140405 51 298 0.0 0.0 0.00 0.00 0.00 97 1018.3
20200525134405 51 298 0.0 0.0 0.00 0.00 0.00 97 1018.5
20200525133905 50 298 0.0 0.0 0.00 0.00 0.00 97 1018.5
20200525133405 50 298 0.0 0.0 0.00 0.00 0.00 97 1018.5
20200525132405 49 298 0.0 0.0 0.00 0.00 0.00 97 1018.5
20200525131405 49 298 0.0 0.0 0.00 0.00 0.00 97 1018.2
20200525130906 49 298 0.0 0.0 0.00 0.00 0.00 97 1018.2
20200525125905 48 298 0.0 0.0 0.00 0.00 0.00 97 1018.2
20200525124405 48 298 0.0 0.0 0.00 0.00 0.00 96 1017.8
20200525123905 48 298 0.0 0.0 0.00 0.00 0.00 96 1017.7
20200525122905 48 298 0.0 0.0 0.00 0.00 0.00 96 1017.8
20200525122405 48 298 0.0 0.0 0.00 0.00 0.00 96 1018.0
20200525121905 48 298 0.0 0.0 0.00 0.00 0.00 96 1017.9
20200525120405 47 298 0.0 0.0 0.00 0.00 0.00 95 1017.8
20200525115406 48 298 0.0 0.0 0.00 0.00 0.00 95 1018.1